Location: Unspecified
(28.3498°S, 0.0000°E)
Time: 07:18:31
(UTC+00:00)

Tiros 1 - Visible Passes

Search period start: 04 April 2026 00:00
Search period end: 14 April 2026 00:00
Orbit: 618 x 650 km, 48.4° (Epoch: 28 March)

Date Brightness Start Highest point End Pass type
(mag) Time Alt. Az. Time Alt. Az. Time Alt. Az.
4 Apr 9.6 04:32:38 10° SSW 04:32:38 10° SSW 04:33:06 10° S visible
11 Apr 9.7 05:23:48 10° S 05:25:22 11° SSE 05:26:54 10° SE visible
12 Apr 9.3 05:44:01 10° SSW 05:47:27 20° SSE 05:50:50 10° ESE visible
